Home   Weather   Mechernich   Past weeks

Flag for Germany Past Weather in Mechernich, North Rhine-Westphalia, Germany — Yesterday and Last 2 Weeks

Now
43 °F

Passing clouds.


Feels Like: 39 °F
Forecast: 43 / 46 °F
Wind: 6 mph from Southeast

Location: Noervenich

Current Time: Dec 10, 2016 at 2:24:15 am

Latest Report: Dec 10, 2016 at 1:20 am


Visibility: N/A

Pressure: 30.30 "Hg

Humidity: 81%

Dew Point: 37 °F

Location of MechernichLocation

Past Weather in Mechernich — Graph

°F

Mechernich Temperature Yesterday

Maximum temperature yesterday: 54 °F (at 2:20 pm)
Minimum temperature yesterday: 43 °F (at 12:20 am)
Average temperature yesterday: 49 °F

High & Low Weather Summary for the Past Weeks

 TemperatureHumidityPressure
High54 °F (Dec 9, 2:20 pm)100% (Nov 25, 3:20 am)30.57 "Hg (Nov 25, 3:20 am)
Low19 °F (Nov 30, 2:20 am)45% (Nov 30, 2:20 pm)30.07 "Hg (Nov 26, 1:20 pm)
Average37 °F85%30.31 "Hg
* Reported Nov 25 12:20 am — Dec 10 12:20 am, Mechernich, Weather by CustomWeather, © 2016

Note: Actual official high and low records may vary slightly from our data, if they occured in-between our weather recording intervals... More about our weather records

Advertising

Mechernich Weather History for the Previous 24 Hours

Scroll right to see more
 ConditionsComfort  
Time TempWeatherWind HumidityBarometerVisibility
12:20 am
Sat, Dec 10
45 °FPassing clouds.5 mph81%30.33 "HgN/A
11:20 pm
Fri, Dec 9
46 °FPassing clouds.6 mph76%30.33 "HgN/A
10:20 pm46 °FPassing clouds.5 mph82%30.33 "HgN/A
9:20 pm46 °FPassing clouds.5 mph76%30.33 "HgN/A
8:20 pm48 °FPassing clouds.6 mph76%30.33 "HgN/A
7:20 pm50 °FPassing clouds.1 mph76%30.33 "HgN/A
6:20 pm52 °FPassing clouds.5 mph72%30.36 "HgN/A
5:20 pm52 °FPassing clouds.5 mph82%30.36 "HgN/A
4:20 pm52 °FPartly sunny.2 mph82%30.36 "HgN/A
3:20 pm54 °FPartly sunny.3 mph82%30.36 "HgN/A
2:20 pm54 °FPartly sunny.3 mph82%30.36 "HgN/A
1:20 pm52 °FPartly sunny.2 mph88%30.36 "HgN/A
12:20 pm50 °FBroken clouds.3 mph88%30.39 "HgN/A
11:20 am50 °FPartly sunny.2 mph88%30.39 "HgN/A
10:20 am48 °FPartly sunny.3 mph87%30.39 "HgN/A
9:20 am46 °FPartly sunny.1 mph93%30.39 "HgN/A
8:20 am48 °FPassing clouds.2 mph82%30.39 "HgN/A
7:20 am48 °FPassing clouds.2 mph82%30.39 "HgN/A
6:20 am48 °FPassing clouds.8 mph82%30.39 "HgN/A
5:20 am48 °FPassing clouds.9 mph82%30.39 "HgN/A
4:20 am48 °FPassing clouds.12 mph82%30.39 "HgN/A
3:20 am48 °FPassing clouds.14 mph82%30.36 "HgN/A
2:20 am48 °FPassing clouds.10 mph82%30.36 "HgN/A
Weather by CustomWeather, © 2016

See weather overviewHow to use our weather pages